Franklin, PA

12:58 PM EST on December 11, 2017 (GMT -0500)
Venango Regional

Weather History for KFKL - February, 2013

Change the Weather History Date:

Tuesday, February 26, 2013

  Actual Average Record
Temperature  
Mean Temperature 32 °F -  
Max Temperature 37 °F 36 °F 68 °F (1976)
Min Temperature 26 °F 18 °F -26 °F (1963)
Degree Days  
Heating Degree Days 34    
Moisture  
Dew Point 25 °F    
Average Humidity 74    
Maximum Humidity 87    
Minimum Humidity 60    
Precipitation  
Precipitation 0.69 in - - ()
Sea Level Pressure  
Sea Level Pressure 29.85 in    
Wind  
Wind Speed 11 mph (East)    
Max Wind Speed 25 mph    
Max Gust Speed 34 mph    
Visibility 9 miles    
Events      
Averages and records for this station are not official NWS values.
T = Trace of Precipitation, MM = Missing Value Source: NWS Daily Summary

Daily Weather History Graph

Daily Weather History Graph

Search for Another Location

Airport or City:

Trip Planner

Search our weather history database for the weather conditions in past years. The results will help you decide how hot, cold, wet, or windy it might be!

Date:

Astronomy

Feb. 26, 2013 Rise Set
Actual Time 6:58 AM EST 6:06 PM EST
Civil Twilight 6:30 AM EST 6:34 PM EST
Nautical Twilight 5:58 AM EST 7:06 PM EST
Astronomical Twilight 5:26 AM EST 7:38 PM EST
Moon 7:23 PM EST (2/26) 6:58 AM EST (2/26)
Length of Visible Light 12h 04m
Length of Day
11h 08m
Full, 99% of the Moon is Illuminated
Feb 26
Full
Mar 4
Last Quarter
Mar 11
New
Mar 19
First Quarter
Mar 27
Full

Hourly Weather History & Observations

Time (EST) Temp. Windchill Dew Point Humidity Pressure Visibility Wind Dir Wind Speed Gust Speed Precip Events Conditions
12:15 AM 28.4 °F 23.3 °F 19.4 °F 69% 30.09 in 10.0 mi East 4.6 mph - N/A   Clear
12:35 AM 28.4 °F 21.2 °F 19.4 °F 69% 30.07 in 10.0 mi ENE 6.9 mph - N/A   Clear
12:55 AM 26.6 °F 19.1 °F 19.4 °F 74% 30.06 in 10.0 mi ENE 6.9 mph - N/A   Clear
1:15 AM 26.6 °F 20.0 °F 19.4 °F 74% 30.07 in 10.0 mi ENE 5.8 mph - N/A   Clear
1:35 AM 26.6 °F 18.2 °F 19.4 °F 74% 30.06 in 10.0 mi ENE 8.1 mph - N/A   Clear
1:55 AM 26.6 °F 20.0 °F 19.4 °F 74% 30.06 in 10.0 mi ENE 5.8 mph - N/A   Clear
2:15 AM 26.6 °F 18.2 °F 17.6 °F 69% 30.05 in 10.0 mi East 8.1 mph - N/A   Clear
2:35 AM 26.6 °F 19.1 °F 17.6 °F 69% 30.05 in 10.0 mi ENE 6.9 mph - N/A   Clear
2:55 AM 26.6 °F 19.1 °F 19.4 °F 74% 30.05 in 10.0 mi East 6.9 mph - N/A   Clear
3:15 AM 28.4 °F 22.2 °F 19.4 °F 69% 30.05 in 10.0 mi East 5.8 mph - N/A   Clear
3:35 AM 28.4 °F 22.2 °F 19.4 °F 69% 30.03 in 10.0 mi East 5.8 mph - N/A   Clear
3:55 AM 28.4 °F 21.2 °F 19.4 °F 69% 30.02 in 10.0 mi ENE 6.9 mph - N/A   Clear
4:15 AM 26.6 °F 19.1 °F 19.4 °F 74% 30.01 in 10.0 mi East 6.9 mph - N/A   Clear
4:35 AM 28.4 °F 22.2 °F 19.4 °F 69% 30.00 in 10.0 mi East 5.8 mph - N/A   Clear
4:55 AM 28.4 °F 20.4 °F 19.4 °F 69% 29.99 in 10.0 mi East 8.1 mph - N/A   Clear
5:15 AM 28.4 °F 20.4 °F 19.4 °F 69% 29.99 in 10.0 mi East 8.1 mph - N/A   Clear
5:35 AM 28.4 °F 19.7 °F 19.4 °F 69% 29.98 in 10.0 mi East 9.2 mph - N/A   Clear
5:55 AM 28.4 °F 20.4 °F 19.4 °F 69% 29.97 in 10.0 mi East 8.1 mph - N/A   Clear
6:15 AM 28.4 °F 22.2 °F 19.4 °F 69% 29.98 in 10.0 mi East 5.8 mph - N/A   Clear
6:35 AM 30.2 °F 20.8 °F 19.4 °F 64% 29.99 in 10.0 mi ESE 11.5 mph 16.1 mph N/A   Clear
6:55 AM 30.2 °F 20.8 °F 19.4 °F 64% 29.98 in 10.0 mi East 11.5 mph 18.4 mph N/A   Clear
7:15 AM 30.2 °F 21.3 °F 19.4 °F 64% 29.97 in 10.0 mi East 10.4 mph 18.4 mph N/A   Clear
7:35 AM 30.2 °F 20.2 °F 21.2 °F 69% 29.96 in 10.0 mi East 12.7 mph 19.6 mph N/A   Clear
7:55 AM 30.2 °F 20.8 °F 21.2 °F 69% 29.97 in 10.0 mi East 11.5 mph 20.7 mph N/A   Clear
8:15 AM 30.2 °F 19.8 °F 21.2 °F 69% 29.96 in 10.0 mi East 13.8 mph 21.9 mph N/A   Clear
8:35 AM 32.0 °F 23.6 °F 21.2 °F 64% 29.97 in 10.0 mi East 10.4 mph 21.9 mph N/A   Clear
8:55 AM 32.0 °F 21.6 °F 21.2 °F 64% 29.95 in 10.0 mi ESE 15.0 mph 18.4 mph N/A   Clear
9:15 AM 33.8 °F 24.8 °F 21.2 °F 60% 29.95 in 10.0 mi East 12.7 mph 18.4 mph N/A   Clear
9:35 AM 33.8 °F 23.9 °F 21.2 °F 60% 29.93 in 10.0 mi ESE 15.0 mph 23.0 mph N/A   Clear
9:55 AM 33.8 °F 22.8 °F 23.0 °F 65% 29.93 in 10.0 mi ESE 18.4 mph 24.2 mph N/A   Clear
10:15 AM 35.6 °F 24.5 °F 23.0 °F 60% 29.93 in 10.0 mi ESE 20.7 mph 28.8 mph N/A   Clear
10:35 AM 35.6 °F 25.5 °F 23.0 °F 60% 29.92 in 10.0 mi ESE 17.3 mph 29.9 mph N/A   Clear
10:55 AM 35.6 °F 25.2 °F 24.8 °F 65% 29.90 in 10.0 mi ESE 18.4 mph 27.6 mph N/A   Clear
11:15 AM 35.6 °F 25.5 °F 24.8 °F 65% 29.90 in 10.0 mi East 17.3 mph 25.3 mph N/A   Partly Cloudy
11:35 AM 37.4 °F 27.8 °F 24.8 °F 60% 29.90 in 10.0 mi ESE 17.3 mph 25.3 mph N/A   Mostly Cloudy
11:55 AM 37.4 °F 27.8 °F 24.8 °F 60% 29.89 in 10.0 mi ESE 17.3 mph 27.6 mph N/A   Overcast
12:15 PM 37.4 °F 27.8 °F 24.8 °F 60% 29.88 in 10.0 mi ESE 17.3 mph 28.8 mph N/A   Overcast
12:35 PM 37.4 °F 27.5 °F 24.8 °F 60% 29.87 in 10.0 mi East 18.4 mph 27.6 mph N/A   Overcast
12:55 PM 37.4 °F 27.8 °F 24.8 °F 60% 29.86 in 10.0 mi ESE 17.3 mph 29.9 mph N/A   Overcast
1:15 PM 35.6 °F 25.9 °F 24.8 °F 65% 29.85 in 10.0 mi ESE 16.1 mph 23.0 mph N/A   Overcast
1:35 PM 35.6 °F 25.5 °F 24.8 °F 65% 29.84 in 10.0 mi ESE 17.3 mph 32.2 mph N/A   Overcast
1:55 PM 35.6 °F 23.4 °F 26.6 °F 70% 29.82 in 10.0 mi ESE 25.3 mph 34.5 mph N/A   Overcast
2:15 PM 35.6 °F 25.9 °F 26.6 °F 70% 29.81 in 8.0 mi ESE 16.1 mph 31.1 mph N/A   Overcast
2:35 PM 33.8 °F 23.2 °F 28.4 °F 81% 29.79 in 10.0 mi East 17.3 mph 24.2 mph N/A   Overcast
2:55 PM 33.8 °F 22.8 °F 28.4 °F 81% 29.78 in 9.0 mi East 18.4 mph 27.6 mph 0.01 in   Overcast
3:15 PM 33.8 °F 22.8 °F 28.4 °F 81% 29.77 in 7.0 mi East 18.4 mph 24.2 mph 0.01 in   Overcast
3:35 PM 33.8 °F 22.5 °F 28.4 °F 81% 29.75 in 6.0 mi East 19.6 mph 24.2 mph 0.02 in   Overcast
3:55 PM 33.8 °F 22.8 °F 28.4 °F 81% 29.74 in 4.0 mi East 18.4 mph 25.3 mph 0.06 in   Overcast
4:15 PM 33.8 °F 23.9 °F 28.4 °F 81% 29.75 in 4.0 mi ESE 15.0 mph 26.5 mph 0.03 in   Mostly Cloudy
4:35 PM 33.8 °F 23.2 °F 30.2 °F 87% 29.73 in 2.5 mi East 17.3 mph 27.6 mph 0.10 in   Overcast
4:55 PM 33.8 °F 21.9 °F 28.4 °F 81% 29.71 in 4.0 mi East 21.9 mph 34.5 mph 0.15 in   Overcast
5:15 PM 33.8 °F 21.3 °F 28.4 °F 81% 29.70 in 3.0 mi East 24.2 mph 33.4 mph 0.09 in   Overcast
5:35 PM 33.8 °F 23.2 °F 30.2 °F 87% 29.69 in 2.0 mi East 17.3 mph 26.5 mph 0.12 in   Overcast
5:55 PM 33.8 °F 22.8 °F 30.2 °F 87% 29.69 in 1.8 mi ESE 18.4 mph 29.9 mph 0.19 in   Overcast
6:15 PM 33.8 °F 24.3 °F 30.2 °F 87% 29.70 in 10.0 mi East 13.8 mph 19.6 mph N/A   Mostly Cloudy
6:35 PM 33.8 °F 25.3 °F 30.2 °F 87% 29.68 in 8.0 mi East 11.5 mph 20.7 mph 0.01 in   Overcast
6:55 PM 33.8 °F 23.2 °F 30.2 °F 87% 29.69 in 4.0 mi ESE 17.3 mph 25.3 mph 0.10 in   Overcast
7:15 PM 33.8 °F 24.8 °F 30.2 °F 87% 29.68 in 5.0 mi East 12.7 mph 23.0 mph 0.01 in   Overcast
7:35 PM 33.8 °F 22.5 °F 30.2 °F 87% 29.68 in 3.0 mi ESE 19.6 mph 27.6 mph 0.01 in   Overcast
7:55 PM 33.8 °F 24.8 °F 30.2 °F 87% 29.68 in 3.0 mi ESE 12.7 mph 24.2 mph 0.01 in   Overcast
8:15 PM 33.8 °F 25.3 °F 30.2 °F 87% 29.66 in 3.0 mi ESE 11.5 mph 17.3 mph 0.01 in   Overcast
8:35 PM 33.8 °F 23.2 °F 30.2 °F 87% 29.65 in 4.0 mi ESE 17.3 mph 25.3 mph 0.02 in   Overcast
8:55 PM 33.8 °F 23.2 °F 30.2 °F 87% 29.64 in 6.0 mi ESE 17.3 mph 26.5 mph 0.05 in   Overcast
9:15 PM 33.8 °F 22.5 °F 30.2 °F 87% 29.62 in 10.0 mi ESE 19.6 mph 27.6 mph 0.02 in   Overcast
9:35 PM 33.8 °F 22.8 °F 30.2 °F 87% 29.62 in 10.0 mi ESE 18.4 mph 26.5 mph 0.04 in   Overcast
9:55 PM 33.8 °F 22.8 °F 30.2 °F 87% 29.61 in 10.0 mi ESE 18.4 mph 27.6 mph 0.06 in   Overcast
10:15 PM 33.8 °F 22.5 °F 30.2 °F 87% 29.60 in 10.0 mi ESE 19.6 mph 27.6 mph 0.02 in   Overcast
10:35 PM 33.8 °F 23.5 °F 30.2 °F 87% 29.59 in 10.0 mi ESE 16.1 mph 26.5 mph 0.03 in   Overcast
10:55 PM 33.8 °F 22.5 °F 30.2 °F 87% 29.59 in 10.0 mi ESE 19.6 mph 27.6 mph 0.04 in   Overcast
11:15 PM 33.8 °F 22.8 °F 30.2 °F 87% 29.58 in 10.0 mi ESE 18.4 mph 28.8 mph 0.01 in   Overcast
11:55 PM 33.8 °F 23.9 °F 30.2 °F 87% 29.58 in 10.0 mi ESE 15.0 mph 26.5 mph 0.02 in   Overcast